OBJECT C, 64060

Orbit data source: Space-Track

You're viewing an Uncataloged Satellite

Recently launched and/or uncataloged satellites may have evolving metadata. Metadata may include but not limited to: Owner, Maufacturer, Bus, Motor, and Mission.

OBJECT C, 64060 is a satellite owned by Guodian Gaokeji (CN) in LEO that was launched on Mon, 19 May 2025 UTC via a GUSHENXING 1 launch vehicle from the Yellow Sea Launch Area, China (YSLA). Unknown objects in Earth's orbit typically refer to objects detected orbiting the Earth but have not yet been identified or cataloged. These objects could be anything from previously untracked satellites, spent rocket stages, debris from satellite collisions, or even natural meteoroids temporarily captured by Earth's gravity.

Loading next visibility...
Identifier
64060, 2025-105C
Orbit
LEO
Last TLE update
2 days ago
Origin
Flag of CNGUOG (CN / PRC)
Manufacturer
Shanghai ASES
Mission
Operational spacecraft
Bus & Motor
STARLIGHTB, Unknown motor
Mass
40 kg wet, ~40 kg dry
Launch date (UTC)
2025-05-19 (1 month ago)
Launch vehicle
GUSHENXING 1
Launch site
Yellow Sea Launch Area, China (YSLA)
Object type
Unknown
Shape & HBR
Unknown
Radar Cross Section
Medium (>0.1 m² and <1 m²)

Expand to show TLE details & history

TLE from 2 days ago
0 OBJECT C
1 64060U 25105C   25168.42706300  .00000014  00000-0  84479-4 0  9994
2 64060  44.9830 204.8934 0011154 114.8467 245.3530 14.08588569  4111
Epoch: 2025-06-17T10:14Z
TLE epoch observation values (Epoch: 2025-06-17T10:14:58.243Z)
Latitude
-0.00002°
Longitude
145.22709°
Altitude
867.579 km
Speed
7.418 km/s
True Right ascension
13h 39m 34s
True Declination
0° 00' 00"
Sunlit
Object was in daylight at epoch
Visualization orbit readout
Latitude
-2.58618°
Longitude
134.31649°
Altitude
869.455 km
Speed
7.416 km/s
Apparent Right ascension
10h 14m 05s
Apparent Declination
-32° 30' 57"
Sunlit
Object is in daylight
Visualization observer readout
Local Sidereal Time
17:19:53
Azimuth
252.238° W
Elevation
-31.874°
Doppler factor
1
Orbital elements
Apogee altitude
873.813 km
Perigee altitude
857.654 km
Semi-major axis
7,243.87 km
Eccentricity
0.00112
Inclination
44.983°
RAAN
204.8934°
Arg. of periapsis
114.8467°
True anomaly
Unknown
Mean anomaly
245.353°
Eccentric anomaly
Unknown
Mean motion
3.52036 °/min
Orbital period
102.26 mins
BSTAR
0.000084479
Loading maneuver chart data...
Loading SW <> Apogee altitude chart data...
Loading historical data...
Loading historical data...
Loading historical data...
Loading historical data...
Loading historical data...
Loading historical data...
Loading historical data...
Other satellites on launch #105 in the year 2025 (2025-05-19 UTC)

OBJECT C Visibility forecast

Observer location: undefined°, undefined°

Span
Click to sort rows by Start time (UTC) header in descending order
Start Az.
Max El. time (UTC)
Max El. Az.
Max El.
End time (UTC)
End Az.
10 mins2025-06-19 06:46:24.206Z263.699° W2025-06-19 06:51:24.206Z344.778° N42.299°2025-06-19 06:56:24.206Z65.297° ENE
9 mins2025-06-19 08:35:24.206Z293.644° NW2025-06-19 08:39:24.206Z1.953° NNE38.641°2025-06-19 08:44:24.206Z79.476° E
9 mins2025-06-19 10:23:24.206Z293.225° NW2025-06-19 10:27:24.206Z154.367° SSE44.987°2025-06-19 10:32:24.206Z115.688° SE
7 mins2025-06-19 12:11:24.206Z264.228° W2025-06-19 12:14:24.206Z221.549° SW24.949°2025-06-19 12:18:24.206Z170.113° S
4 mins2025-06-20 03:06:24.206Z146.962° SSE2025-06-20 03:07:24.206Z135.61° SSE14.373°2025-06-20 03:10:24.206Z103.457° ESE
9 mins2025-06-20 04:50:24.206Z220.775° SW2025-06-20 04:54:24.206Z144.921° SSE40.479°2025-06-20 04:59:24.206Z71.982° E
|